Brainerd, MN

7:42 AM CDT on May 24, 2018 (GMT -0500)
Brainerd-Crow Wing County Regional

Weather History for KBRD - January, 2015

Change the Weather History Date:

Friday, January 30, 2015

  Actual Average Record
Temperature  
Mean Temperature 14 °F 12 °F  
Max Temperature 24 °F 22 °F 45 °F (1989)
Min Temperature 3 °F 1 °F -40 °F (1996)
Degree Days  
Heating Degree Days 52 53  
Month to date heating degree days 1615  
Cooling Degree Days 0 0  
Month to date cooling degree days 0  
Moisture  
Dew Point 8 °F    
Average Humidity 74    
Maximum Humidity 84    
Minimum Humidity 60    
Precipitation  
Precipitation 0.00 in 0.02 in 0.30 in (1969)
Month to date precipitation 0.75  
Snow  
Snow 0.00 in 0.20 in - ()
Month to date snowfall 9.3  
Snow Depth -    
Sea Level Pressure  
Sea Level Pressure 30.40 in    
Wind  
Wind Speed 6 mph (SSW)    
Max Wind Speed 15 mph    
Max Gust Speed 18 mph    
Visibility 10 miles    
Events      
T = Trace of Precipitation, MM = Missing Value Source: NWS Daily Summary

Daily Weather History Graph

Daily Weather History Graph

Search for Another Location

Airport or City:

Astronomy

Jan. 30, 2015 Rise Set
Actual Time 7:42 AM CST 5:17 PM CST
Civil Twilight 7:10 AM CST 5:50 PM CST
Nautical Twilight 6:33 AM CST 6:26 PM CST
Astronomical Twilight 5:58 AM CST 7:01 PM CST
Moon 1:51 PM CST (1/30) 4:14 AM CST (1/30)
Length of Visible Light 10h 39m
Length of Day
9h 35m
Waxing Gibbous, 84% of the Moon is Illuminated
Jan 30
Waxing Gibbous
Feb 3
Full
Feb 11
Last Quarter
Feb 18
New
Feb 25
First Quarter

Hourly Weather History & Observations

Time (CST) Temp. Windchill Dew Point Humidity Pressure Visibility Wind Dir Wind Speed Gust Speed Precip Events Conditions
12:53 AM 5.0 °F -5.6 °F -0.0 °F 80% 30.62 in 10.0 mi NNW 5.8 mph - N/A   Clear
1:53 AM 5.0 °F -4.1 °F -0.0 °F 80% 30.61 in 10.0 mi NNW 4.6 mph - N/A   Clear
2:53 AM 3.9 °F - -0.0 °F 84% 30.59 in 10.0 mi Calm Calm - N/A   Clear
3:53 AM 3.9 °F - -0.0 °F 84% 30.58 in 10.0 mi Calm Calm - N/A   Partly Cloudy
4:53 AM 5.0 °F -2.1 °F -0.0 °F 80% 30.58 in 10.0 mi North 3.5 mph - N/A   Clear
5:53 AM 5.0 °F - -0.0 °F 80% 30.56 in 10.0 mi Calm Calm - N/A   Clear
6:53 AM 5.0 °F -2.1 °F 1.0 °F 84% 30.57 in 10.0 mi South 3.5 mph - N/A   Overcast
7:53 AM 6.1 °F -0.9 °F 1.9 °F 83% 30.56 in 10.0 mi South 3.5 mph - N/A   Overcast
8:53 AM 8.1 °F -4.3 °F 3.0 °F 80% 30.53 in 10.0 mi South 8.1 mph - N/A   Scattered Clouds
9:53 AM 10.0 °F -3.7 °F 3.9 °F 76% 30.53 in 10.0 mi SSW 10.4 mph - N/A   Scattered Clouds
10:53 AM 12.0 °F -2.7 °F 5.0 °F 73% 30.50 in 10.0 mi SSW 12.7 mph - N/A   Overcast
11:53 AM 15.1 °F 1.8 °F 7.0 °F 70% 30.46 in 10.0 mi South 11.5 mph - N/A   Overcast
12:53 PM 19.0 °F 7.5 °F 9.0 °F 65% 30.41 in 10.0 mi South 10.4 mph - N/A   Scattered Clouds
1:53 PM 21.9 °F 11.0 °F 10.0 °F 60% 30.35 in 10.0 mi South 10.4 mph - N/A   Mostly Cloudy
2:53 PM 23.0 °F 10.6 °F 10.9 °F 60% 30.32 in 10.0 mi South 13.8 mph - N/A   Overcast
3:53 PM 23.0 °F 10.1 °F 10.9 °F 60% 30.28 in 10.0 mi South 15.0 mph - N/A   Overcast
4:53 PM 23.0 °F 12.4 °F 12.0 °F 63% 30.25 in 10.0 mi South 10.4 mph 18.4 mph N/A   Overcast
5:53 PM 23.0 °F 13.1 °F 12.9 °F 65% 30.26 in 10.0 mi SSW 9.2 mph - N/A   Overcast
6:21 PM 23.0 °F 14.7 °F 14.0 °F 68% 30.19 in 10.0 mi SSW 6.9 mph - N/A   Overcast
6:53 PM 23.0 °F 13.1 °F 14.0 °F 68% 30.26 in 10.0 mi South 9.2 mph - N/A   Overcast
7:53 PM 24.1 °F 15.2 °F 16.0 °F 71% 30.24 in 10.0 mi South 8.1 mph - N/A   Overcast
8:53 PM 24.1 °F 18.2 °F 17.1 °F 75% 30.22 in 10.0 mi South 4.6 mph - N/A   Overcast
9:53 PM 24.1 °F 17.0 °F 18.0 °F 77% 30.20 in 10.0 mi SSW 5.8 mph - N/A   Overcast
10:53 PM 24.1 °F 17.0 °F 18.0 °F 77% 30.19 in 10.0 mi SSW 5.8 mph - N/A   Overcast
11:53 PM 24.1 °F - 19.0 °F 81% 30.17 in 10.0 mi Calm Calm - N/A   Overcast